Regional Weather Roundup
Issued by NWS

Home | Current Version | Previous Version | Graphics & Text | Print | Product List | Glossary On
Versions: 1 2 3 4 5 6 7 8 9 10 11 12 13 14 15 16 17 18 19 20 21 22 23 24 25 26 27 28 29 30 31 32 33 34 35 36 37 38 39 40 41 42 43 44 45 46 47 48 49 50
000
ASUS45 KBOU 271207
RWRCO

WEATHER ROUNDUP FOR COLORADO
NATIONAL WEATHER SERVICE DENVER/BOULDER CO
600 AM MDT WED AUG 27 2014

NOTE: "FAIR" INDICATES FEW OR NO CLOUDS BELOW 12000 FEET WITH NO
SIGNIFICANT WEATHER AND/OR OBSTRUCTIONS TO VISIBILITY.

COZ001>005-013-030-031-271300-
...NORTHWEST COLORADO...

CITY           SKY/WX    TMP DP  RH WIND       PRES   REMARKS
CRAIG          LGT RAIN  55  52  89 NE6       30.28S
HAYDEN         CLOUDY    52  48  87 CALM      30.30R
MEEKER         CLOUDY    54  51  90 CALM      30.28S
MOUNT WERNER   NOT AVBL
STEAMBOAT SPGS CLOUDY    50  49  97 CALM      30.31R
WALDEN         CLOUDY    50  46  87 S7        30.34R
$$

COZ006>008-011-271300-
...WEST CENTRAL VALLEYS...

CITY           SKY/WX    TMP DP  RH WIND       PRES   REMARKS
GRAND JUNCTION CLOUDY    57  55  93 SE7       30.21S
MONTROSE       CLOUDY    55  54  96 S6        30.30R
EAGLE          CLOUDY    54  54 100 CALM      30.31R
RIFLE          CLOUDY    56  54  93 NE3       30.26R
DELTA          RAIN      56  56  99 CALM      30.27R
NUCLA          RAIN      54  52  94 E5        30.34R
$$

COZ017>023-064>068-271300-
...SOUTHWEST COLORADO...

CITY           SKY/WX    TMP DP  RH WIND       PRES   REMARKS
DURANGO        CLOUDY    50  50 100 N5        30.34S
CORTEZ         CLOUDY    52  52 100 SE3       30.32S
PAGOSA SPRINGS CLOUDY    51  51 100 CALM      30.39R
TELLURIDE      PTCLDY    46  45  93 CALM      30.43R
WOLF CREEK PAS SNOW      37  37 100 SW14G24   30.57S VSB 1/4
$$

COZ009-010-012-014-032>034-037-058>063-271300-
...CENTRAL COLORADO...

CITY           SKY/WX    TMP DP  RH WIND       PRES   REMARKS
ASPEN          CLOUDY    51  49  92 CALM      30.34R
BUENA VISTA    CLOUDY    50  49  95 CALM      30.34S
COPPER MTN     CLOUDY    45  37  76 S16       30.55R
BERTHOUD PASS  DRIZZLE   36  36 100 SE9       30.58R
COTTONWOOD PAS CLOUDY    50  45  81 CALM      30.43S
GUNNISON       PTCLDY    48  45  87 N6        30.38R
KREMMLING      LGT RAIN  50  46  87 CALM      30.33S
LEADVILLE      CLOUDY    44  43  96 NE3       30.42S
MONARCH PASS   FOG       37  37 100 SW20G26   30.64S VSB 1/4
SALIDA         CLOUDY    55  52  91 CALM      30.39S
SUNLIGHT       CLOUDY    43  43 100 CALM      30.50S FOG
WILKERSON PASS NOT AVBL
$$

COZ069>075-271300-
...SAN LUIS VALLEY/SANGRE DE CRISTO MOUNTAINS...

CITY           SKY/WX    TMP DP  RH WIND       PRES   REMARKS
ALAMOSA        CLOUDY    51  50  96 SW5       30.33S
LA VETA PASS   NOT AVBL
SAGUACHE       CLOUDY    52  50  93 CALM      30.35F
$$

COZ035-036-038>040-271300-
...NORTHERN COLORADO FRONT RANGE...

CITY           SKY/WX    TMP DP  RH WIND       PRES   REMARKS
DENVER INTL AP CLOUDY    59  56  89 S9        30.15S
DMNS CITY PARK   N/A     59  56  91 S2        30.15R
AURORA         MOCLDY    58  56  94 S7        30.18R
FRONT RANGE AP MOCLDY    59  57  94 S3        30.16S
ERIE MUNI ARPT CLOUDY    59  56  91 CALM      30.14S
BOULDER MUN AP CLOUDY    61  55  82 CALM      30.14F
CENTENNIAL     CLOUDY    57  54  89 SE6       30.18R
BROOMFIELD     CLOUDY    61  54  77 N7        30.17S
FORT COLLINS   CLOUDY    61  55  82 N6        30.15S
LONGMONT       CLOUDY    62  56  81 CALM      30.16R
$$

COZ041-046-047-076>085-087-088-271300-
...PIKES PEAK/PALMER DIVIDE AND SOUTHERN FOOTHILLS...

CITY           SKY/WX    TMP DP  RH WIND       PRES   REMARKS
COLO. SPRINGS  MOCLDY    55  52  89 NE5       30.22S
A. F. ACADEMY  CLOUDY    53  52  99 NW6       30.23R
ELLICOTT       MOCLDY    55  54  96 E6        30.20F
FALCON         MOCLDY    53  53  98 CALM      30.26S
FORT CARSON    MOCLDY    55  52  90 N3        30.19S
LIMON          MOCLDY    57  57 100 SE6       30.18S
MONUMENT HILL  MOCLDY    50  48  93 S6        30.25R
TRINIDAD       MOCLDY    63  54  72 W8        30.19R
$$

COZ042>045-048>051-090-091-271300-
...NORTHEAST COLORADO...

CITY           SKY/WX    TMP DP  RH WIND       PRES   REMARKS
GREELEY ARPT   CLOUDY    61  52  72 CALM      30.13S
AKRON          MOCLDY    61  58  90 SE3       30.14S
BURLINGTON     MOCLDY    61  59  93 S5        30.15S
WRAY             N/A     63  63 100 SE6       30.13S
STERLING       MOCLDY    63  63 100 S5        30.10R
HOLYOKE        PTCLDY    63  61  94 SE7       30.11S
FORT MORGAN    MOCLDY    58  56  93 E3        30.13F
$$

COZ086-089-092>099-271300-
...SOUTHEAST COLORADO...

CITY           SKY/WX    TMP DP  RH WIND       PRES   REMARKS
PUEBLO         PTCLDY    57  54  89 E5        30.14R
LA JUNTA       FOG       62  61  96 E5        30.12R VSB 1/2
LAMAR          MOCLDY    64  62  93 E10       30.12R
SPRINGFIELD      N/A     63  62  97 S8        30.17R
$$


USA.gov is the U.S. government's official web portal to all federal, state and local government web resources and services.